Location: Be Gungo
(6.6611°N, 10.7357°W)
Time: 07:34:51
(UTC+00:00)

Daily predictions for brighter satellites

Satellite Brightness Start Highest point End
(mag) Time Altitude Azimuth Time Altitude Azimuth Time Altitude Azimuth
SL-16 R/B 3.6 19:05:17 10° NE 19:08:31 15° ENE 19:11:44 10° ESE
Cosmos 2263 Rocket 2.2 19:05:54 10° S 19:11:25 69° ESE 19:16:55 10° NNE
Cosmos 1076 Rocket 4.4 19:10:24 10° SSE 19:14:00 27° E 19:17:37 10° NE
Cosmos 1371 Rocket 4.0 19:16:04 10° S 19:21:11 65° ESE 19:26:17 10° NNE
YAOGAN 6 3.4 19:17:55 10° S 19:21:34 57° W 19:25:11 10° NNW
FengYun 1-2 T 4.3 19:17:14 10° SSE 19:22:49 87° E 19:28:26 10° NNW
Meteor 2-10 Rocket 3.4 19:17:52 10° N 19:22:53 69° E 19:27:50 10° SSE
ATLAS 3B R/B 3.5 19:19:58 10° S 19:25:54 30° ESE 19:31:17 12° NE
Cosmos 2221 4.1 19:23:54 10° NE 19:26:30 16° E 19:29:05 10° ESE
YAOGAN 1 2.7 19:22:55 10° SSE 19:27:05 49° ENE 19:31:14 10° N
Cosmos 1980 3.9 19:21:27 10° NNW 19:27:06 78° WSW 19:32:45 10° S
NOSS 3-2 (C) 3.1 19:21:46 10° SSW 19:27:12 68° ESE 19:32:45 10° NNE
Cosmos 1437 3.0 19:25:27 10° SSE 19:28:20 40° E 19:31:11 10° NNE
CZ-4 R/B 4.5 19:25:49 10° S 19:29:58 87° WSW 19:34:04 10° NNW
SL-4 R/B 3.6 19:26:53 10° S 19:30:49 25° SE 19:33:38 15° E
Cosmos-2242 4.1 19:28:49 10° NNW 19:32:54 47° W 19:36:59 10° SSW
Delta 7925 Rocket 4.3 19:24:38 10° WNW 19:33:17 85° NNE 19:39:53 10° ESE
Cosmos 1892 3.9 19:32:03 10° SE 19:35:09 23° E 19:36:54 17° NE
ARIANE 5 DEB (SYLDA) 4.3 19:31:49 10° WSW 19:37:12 59° S 19:56:07 12° E
Sakura Rocket 3.0 19:33:50 10° SW 19:37:33 49° SSE 19:39:45 20° E
Cosmos 1727 Rocket 3.9 19:34:23 10° N 19:40:28 64° E 19:46:35 10° SSE
GPS 2-14 Rocket1 4.4 19:40:23 10° WNW 19:43:21 21° NNW 19:45:28 14° NNE
CSL-04 Debris 4.1 19:38:10 10° SSE 19:43:32 70° ENE 19:48:52 10° N
Cosmos 1356 Rocket 3.5 19:40:06 10° N 19:44:07 52° E 19:48:13 10° SSE
CENTAUR R/B 2.1 19:39:49 10° SSW 19:45:02 70° ESE 19:50:12 12° NNE
NOSS 3-2 (A) 4.5 19:40:51 10° SW 19:45:52 38° WNW 19:51:04 10° N
ASC 2 Rocket 3.1 19:42:01 10° WSW 19:46:47 65° NNW 19:49:07 24° NE
Ariane Rocket 3.9 19:43:33 10° SE 19:47:41 26° ENE 19:51:49 10° NNE
Cosmos 1624 Rocket 4.3 19:43:31 10° SSW 19:48:49 70° WNW 19:54:05 10° N
CZ-4C R/B 4.0 19:41:55 10° NW 19:49:59 55° WSW 19:58:05 10° S
Orbus 21S 2.3 19:51:42 10° SW 19:53:41 40° SSE 19:54:27 32° ESE
Cosmos 1939 Rocket 2.7 19:50:32 10° S 19:54:22 88° WSW 19:58:15 10° NNW
Palapa 6 Rocket 4.3 19:47:22 10° WNW 19:54:34 85° NNE 20:01:21 16° ESE
ARIANE 5 R/B 3.5 19:52:34 10° W 19:56:49 44° S 19:59:29 18° ESE
Cosmos 2058 3.1 19:57:32 10° S 20:01:35 69° W 20:05:40 10° N
USA 234 3.7 19:59:38 18° ESE 20:03:48 37° NE 20:09:40 10° NNW
SWIFT 4.5 20:02:01 10° NNW 20:03:52 13° N 20:03:52 13° N
Cosmos 2056 Rocket 4.5 19:59:27 10° SSW 20:04:22 46° WNW 20:09:22 10° N
CSL-04 Rocket 4.0 19:59:46 10° S 20:05:08 68° WSW 20:10:35 10° NNW
CZ-2D R/B 4.0 20:03:08 10° S 20:06:51 52° W 20:10:33 10° NNW
Cosmos 1605 Rocket 4.1 20:01:46 10° SSE 20:07:46 51° E 20:11:50 21° NNE
H-II Stage 2 1.7 20:06:42 10° WNW 20:10:03 46° SW 20:10:16 44° SSW
Cosmos 1408 4.4 20:11:21 10° SSE 20:12:40 20° SSE 20:12:40 20° SSE
GPS 2-12 Rocket1 3.1 20:16:52 10° WNW 20:21:41 78° SSW 20:22:42 55° SE
GPS 2-17 Rocket1 3.8 20:17:33 10° SW 20:21:56 39° SSE 20:22:24 38° SE
Cosmos 1842 Rocket 4.4 20:19:34 10° NNW 20:23:54 50° W 20:28:13 10° SSW
SJ-11-01 4.2 20:21:21 10° SSE 20:25:42 64° ESE 20:25:42 64° ESE
CZ-3A R/B 4.5 20:13:10 10° SW 20:34:00 27° S 20:38:33 17° SE
Okean 3 Rocket 3.8 20:29:48 10° SSW 20:34:10 66° W 20:34:48 57° NW
Cosmos 2123 Rocket 4.4 20:47:11 49° SSE 20:47:11 49° SSE 20:51:42 10° S
Cosmos 1452 Rocket 4.0 20:41:36 10° SSW 20:46:47 58° WNW 20:47:41 50° NW
SL-16 R/B 3.6 20:47:17 10° NW 20:52:25 36° WSW 20:57:33 10° S
USA 215 3.8 20:53:52 43° SSE 20:53:52 43° SSE 20:59:05 10° SSW
ARIANE 5 R/B 4.4 20:54:29 10° WSW 20:59:17 26° SW 20:59:17 26° SW
CZ-2C R/B 3.7 21:06:28 39° SSW 21:06:28 39° SSW 21:09:51 10° SSW
Cosmos 1844 Rocket 3.4 21:01:37 10° SSW 21:06:30 48° W 21:06:30 48° W
BLOCK DM-SL R/B 4.2 21:03:11 10° WSW 21:07:46 50° S 21:07:46 50° S
SL-4 R/B 4.5 21:06:26 10° WSW 21:09:18 23° WNW 21:09:18 23° WNW
ATLAS 3B R/B 4.2 21:10:36 10° WSW 21:16:19 28° WNW 21:18:37 23° NW
Ariane H10-3 4.2 15:05:46 10° W 21:32:20 79° S 21:32:51 77° SSE
Ariane H10-3 4.2 21:29:30 10° W 21:46:47 58° WSW 21:46:47 58° WSW
Centaur AC-42 3.8 21:32:58 10° WSW 21:49:09 55° WSW 21:49:09 55° WSW
